Airfield :
LOGIN :

Register | Disclaimer

   EN    FR    IT 

 










Legend :    VFR   Marginal VFR   IFR   Intensive IFR   Very Intensive IFR
Visi :
Ceiling :
>= 8 km
>= 3000ft
5 to 8 km
1000 to 3000 ft
1500m to 5 km
500 to 1000 ft
800 to 1500m
200 to 500 ft
< 800m
< 200 ft
Symbols :   Thunderstorms  Fog  Heavy snow  Heavy precipitations  Wind > 20 kt
SIGMETs :     Misc.  Thunderstorms  Icing  Turbulence  Mountain Waves  Volcanic Ashes







- Airport Elevation : 404 ft
- IATA code : WRO


EPWR - Wroclaw

CURRENT METAR :
  • 201430Z 20007KT 160V250 CAVOK 30/12 Q1017

EXPIRED METARs :
  • 201400Z 19004KT 170V240 CAVOK 30/11 Q1017
  • 201330Z VRB04KT CAVOK 30/11 Q1018
  • 201300Z 15007KT 110V170 CAVOK 30/11 Q1018
  • 201230Z VRB07KT CAVOK 30/11 Q1018
  • 201200Z 19006KT 140V260 CAVOK 30/12 Q1018

TAF TAF EPWR
Valid from the 20 at 15:00 until the 21 at 15:00 UTC


201430Z 2015/2115 18006KT CAVOK
PROB40
TEMPO 2111/2115 18015G25KT
No reported NOTAMs for that airfield.



MET'MAP, your aeronautical weather chart ! - Copyright ORBIFLY December 2007 - Disclaimer

ORBIFLY MET'MAP TEAM :

Programming & Development : Alexandra Zaïnal
Concept & Development : Baudouin d'Aumeries
Co-Development & Prog : Marc-Olivier Méhu
Technical & hardware support : Manuel Goepfert

Contact : metmap@orbifly.com




SOURCES & CREDITS :

   NOAA